{"data":{"norad_id":62292,"intl_designator":"2024-238C","name":"GJZ 03","alt_names":[],"object_type":"PAYLOAD","status":"ACTIVE","operator":null,"country":"PRC","launch_date":"2024-12-12","launch_site_code":"JSC","launch_vehicle":null,"mission":null,"orbit_class":"UNKNOWN","rcs_meters":null,"size_class":null,"mass_kg":null,"dimensions":null,"purposes":[],"wikipedia_slug":null,"has_3d_model":false,"image_url":null,"decayed_at":null,"tle_current":{"epoch":"2026-05-25T01:52:58.659744Z","epoch_age_seconds":61565,"freshness":"FRESH","line1":"1 62292U 24238C   26145.07845671 -.00000060  00000+0  61565-4 0  9999","line2":"2 62292  59.9145 340.9612 0016028 344.0882  15.9620 13.75203694 72717","mean_motion":13.75203694,"eccentricity":0.0016028,"inclination_deg":59.9145,"raan_deg":340.9612,"arg_perigee_deg":344.0882,"mean_anomaly_deg":15.962,"bstar":6.1565e-5,"rev_number":7271,"period_min":104.71176061282,"perigee_km":969.15289141638,"apogee_km":992.74317439787,"semimajor_km":7359.0850329071,"source":"CELESTRAK","updated_at":"2026-05-25T13:38:02.904306Z"}}}